LARES-2

Last updated on Sun Oct 06 2024 00:03:25 GMT+0000 (Coordinated Universal Time)

1 53105U 22080A 24279.35939724 .00000014 00000+0 00000+0 0 9995 2 53105 70.1356 157.9154 0004886 113.1826 246.9565 6.38965213 52061
UTC large
Height (km)
Speed (km/s)
/
Latitude / Longitude
Inclination (degrees)
Orbital Period (minutes)
Azimuth
Elevation
Range (km)
Doppler Factor

Next 0 passes for location: London (51.5072 / 0.1276)

Sorry there are no passes over London.